This is the latest recevied weather packets stored in our database for station/object KO4LFZ. If no packets are shown the sender has not sent any weather packets the latest 10 day(s).
| Time | Temp. | Humidity | Pressure | Rain* | Wind** | Luminosity | Snow |
|---|---|---|---|---|---|---|---|
| 1777468825 | 15.56° C | 98% | 1013.7 hPa | 0 mm | - | 39 W/m² | - |
| 1777468522 | 15.56° C | 99% | 1013.7 hPa | 0 mm | - | 38 W/m² | - |
| 1777468218 | 15.56° C | 98% | 1013.5 hPa | 0 mm | - | 35 W/m² | - |
| 1777467915 | 15.56° C | 99% | 1013.3 hPa | 0 mm | - | 30 W/m² | - |
| 1777467611 | 15.56° C | 99% | 1013.4 hPa | 0 mm | - | 24 W/m² | - |
| 1777467306 | 15.56° C | 99% | 1013.4 hPa | 0 mm | - | 27 W/m² | - |
| 1777467002 | 15.56° C | 99% | 1013.3 hPa | 0 mm | - | 20 W/m² | - |
| 1777466700 | 15.56° C | 99% | 1013.2 hPa | 0 mm | - | 19 W/m² | - |
| 1777466397 | 15.56° C | 99% | 1013.2 hPa | 0 mm | - | 21 W/m² | - |
| 1777466093 | 15.56° C | 99% | 1013 hPa | 0 mm | - | 26 W/m² | - |
| 1777465789 | 15.56° C | 99% | 1013 hPa | 0 mm | - | 25 W/m² | - |
| 1777465485 | 15.56° C | 99% | 1012.4 hPa | 0 mm | - | 21 W/m² | - |
| 1777465184 | 15.56° C | 99% | 1012.4 hPa | 0 mm | - | 21 W/m² | - |
| 1777464879 | 15.56° C | 99% | 1011.9 hPa | 0 mm | - | 23 W/m² | - |
| 1777464575 | 15.56° C | 99% | 1011.9 hPa | 0 mm | - | 23 W/m² | - |
| 1777464271 | 15.56° C | 99% | 1011.8 hPa | 0 mm | - | 22 W/m² | - |
| 1777463967 | 15.56° C | 99% | 1011.7 hPa | 0 mm | - | 23 W/m² | - |
| 1777463662 | 15.56° C | 99% | 1011.9 hPa | 0 mm | - | 15 W/m² | - |
| 1777463357 | 15.56° C | 99% | 1012.2 hPa | 0 mm | - | 14 W/m² | - |
| 1777463054 | 15.56° C | 99% | 1012.2 hPa | 0 mm | - | 15 W/m² | - |
| 1777462749 | 15.56° C | 99% | 1011.7 hPa | 0 mm | - | 18 W/m² | - |
| 1777462444 | 15.56° C | 99% | 1011.8 hPa | 0 mm | - | 18 W/m² | - |
| 1777462142 | 15.56° C | 99% | 1011.6 hPa | 0 mm | - | 17 W/m² | - |
| 1777461838 | 15.56° C | 99% | 1011.5 hPa | 0 mm | - | 7 W/m² | - |
| 1777461534 | 15.56° C | 99% | 1011.4 hPa | 0 mm | - | 6 W/m² | - |
* Rain latest hour (hover to see other rain measurements)
** Current wind speed in m/s (hover to see current wind gust speed)